EW3517 Weather Reports


Display with metric or nautical units.
time (UTC)temp
F
wind
direction
speed
MPH
gust
MPH
rain 1hr
in
rain 24hr
in
rain mn
in
humidity
%
barometer
mb
20260906183002 100 132 0.0 0.0 0.00 0.00 0.00 39 1009.2
20260906181605 99 24 0.0 0.0 0.00 0.00 0.00 38 1009.5
20260906180100 99 130 0.0 0.0 0.00 0.00 0.00 40 1009.6
20260906174610 99 113 0.0 0.0 0.00 0.00 0.00 39 1010.0
20260906173056 99 166 0.0 0.0 0.00 0.00 0.00 40 1010.2
20260906171553 97 202 0.0 0.0 0.00 0.00 0.00 42 1010.5
20260906170051 96 246 0.0 0.0 0.00 0.00 0.00 43 1010.8
20260906164549 97 236 0.0 0.0 0.00 0.00 0.00 41 1011.0
20260906163051 96 148 0.0 0.0 0.00 0.00 0.00 45 1011.0
20260906161547 94 257 0.0 0.0 0.00 0.00 0.00 46 1010.9
20260906160040 94 163 0.0 0.0 0.00 0.00 0.00 45 1010.9
20260906154541 93 261 0.0 0.0 0.00 0.00 0.00 49 1010.8
20260906153033 93 197 0.0 0.0 0.00 0.00 0.00 50 1010.8
20260906151529 91 210 0.0 0.0 0.00 0.00 0.00 51 1010.7
20260906150028 91 210 0.0 0.0 0.00 0.00 0.00 52 1010.7
20260906144522 90 211 0.0 0.0 0.00 0.00 0.00 53 1010.7
20260906143018 89 211 0.0 0.0 0.00 0.00 0.00 55 1010.7
20260906141516 88 209 0.0 0.0 0.00 0.00 0.00 58 1010.6
20260906140018 86 135 0.0 0.0 0.00 0.00 0.00 59 1010.6
20260906134510 84 134 0.0 0.0 0.00 0.00 0.00 62 1010.4
20260906133007 81 134 0.0 0.0 0.00 0.00 0.00 67 1010.3
20260906131504 79 134 0.0 0.0 0.00 0.00 0.00 70 1010.2
20260906130107 79 134 0.0 0.0 0.00 0.00 0.00 70 1010.1
20260906124501 78 134 0.0 0.0 0.00 0.00 0.00 70 1010.0
20260906123100 78 134 0.0 0.0 0.00 0.00 0.00 70 1009.9
20260906121604 78 134 0.0 0.0 0.00 0.00 0.00 69 1009.7
20260906120104 78 134 0.0 0.0 0.00 0.00 0.00 69 1009.6
20260906114608 78 134 0.0 0.0 0.00 0.00 0.00 70 1009.4
20260906113053 78 134 0.0 0.0 0.00 0.00 0.00 70 1009.2
20260906111612 78 134 0.0 0.0 0.00 0.00 0.00 69 1009.0
20260906110050 78 134 0.0 0.0 0.00 0.00 0.00 68 1009.0
20260906104548 79 134 0.0 0.0 0.00 0.00 0.00 69 1008.9
20260906103048 79 134 0.0 0.0 0.00 0.00 0.00 68 1008.8
20260906101547 79 134 0.0 0.0 0.00 0.00 0.00 68 1008.7
20260906100046 79 134 0.0 0.0 0.00 0.00 0.00 70 1008.7
20260906094545 79 134 0.0 0.0 0.00 0.00 0.00 67 1008.7
20260906093050 79 134 0.0 0.0 0.00 0.00 0.00 67 1008.6
20260906091542 79 134 0.0 0.0 0.00 0.00 0.00 69 1008.6
20260906090040 79 134 0.0 0.0 0.00 0.00 0.00 66 1008.5
20260906084539 80 134 0.0 0.0 0.00 0.00 0.00 66 1008.5
20260906083037 80 134 0.0 0.0 0.00 0.00 0.00 65 1008.5
20260906081548 81 134 0.0 0.0 0.00 0.00 0.00 67 1008.4
20260906080033 81 134 0.0 0.0 0.00 0.00 0.00 64 1008.4
20260906074532 81 134 0.0 0.0 0.00 0.00 0.00 62 1008.4
20260906073046 82 134 0.0 0.0 0.00 0.00 0.00 62 1008.5
20260906071529 82 134 0.0 0.0 0.00 0.00 0.00 61 1008.5
20260906070036 82 134 0.0 0.0 0.00 0.00 0.00 60 1008.6
20260906064523 83 134 0.0 0.0 0.00 0.00 0.00 58 1008.5
20260906063022 84 134 0.0 0.0 0.00 0.00 0.00 57 1008.5
20260906061521 84 134 0.0 0.0 0.00 0.00 0.00 55 1008.5
20260906060019 84 134 0.0 0.0 0.00 0.00 0.00 56 1008.5
20260906054522 84 134 0.0 0.0 0.00 0.00 0.00 57 1008.4
20260906053015 84 134 0.0 0.0 0.00 0.00 0.00 56 1008.3
20260906051520 85 134 0.0 0.0 0.00 0.00 0.00 56 1008.1
20260906050009 86 134 0.0 0.0 0.00 0.00 0.00 53 1008.1
20260906044509 87 134 0.0 0.0 0.00 0.00 0.00 52 1008.2
20260906043007 87 134 0.0 0.0 0.00 0.00 0.00 51 1008.1
20260906041506 88 134 0.0 0.0 0.00 0.00 0.00 49 1008.1
20260906040008 89 134 0.0 0.0 0.00 0.00 0.00 48 1008.3
20260906034505 90 134 0.0 0.0 0.00 0.00 0.00 47 1008.2
20260906033004 90 134 0.0 0.0 0.00 0.00 0.00 46 1008.0
20260906031509 91 134 0.0 0.0 0.00 0.00 0.00 46 1008.0
20260906030005 91 134 0.0 0.0 0.00 0.00 0.00 45 1008.0
20260906024503 91 134 0.0 0.0 0.00 0.00 0.00 45 1007.8
20260906023002 92 134 0.0 0.0 0.00 0.00 0.00 44 1007.7
20260906021502 92 134 0.0 0.0 0.00 0.00 0.00 44 1007.5
20260906020101 93 133 0.0 0.0 0.00 0.00 0.00 43 1007.4
20260906014700 94 133 0.0 0.0 0.00 0.00 0.00 41 1007.3
20260906013100 94 130 0.0 0.0 0.00 0.00 0.00 40 1007.1
20260906011600 95 126 0.0 0.0 0.00 0.00 0.00 39 1007.0
20260906010059 96 126 0.0 0.0 0.00 0.00 0.00 38 1006.9
20260906004612 97 134 0.0 0.0 0.00 0.00 0.00 37 1006.7
20260906003058 98 111 0.0 0.0 0.00 0.00 0.00 36 1006.7
20260906001557 98 133 0.0 0.0 0.00 0.00 0.00 35 1006.6
20260906000107 99 109 0.0 0.0 0.00 0.00 0.00 34 1006.5
20260905234601 99 121 0.0 0.0 0.00 0.00 0.00 34 1006.4
20260905233057 100 154 0.0 0.0 0.00 0.00 0.00 35 1006.2
20260905231556 101 153 0.0 0.0 0.00 0.00 0.00 33 1006.2
20260905230054 101 138 0.0 0.0 0.00 0.00 0.00 33 1006.2
20260905224604 101 146 0.0 0.0 0.00 0.00 0.00 33 1006.1
20260905223054 101 244 0.0 0.0 0.00 0.00 0.00 34 1006.1
20260905221551 101 302 0.0 0.0 0.00 0.00 0.00 33 1006.2
20260905220051 101 126 0.0 0.0 0.00 0.00 0.00 33 1006.3
20260905214549 101 153 0.0 0.0 0.00 0.00 0.00 33 1006.5
20260905213047 102 316 0.0 0.0 0.00 0.00 0.00 33 1006.6
20260905211546 101 273 0.0 0.0 0.00 0.00 0.00 33 1006.8
20260905210044 101 115 0.0 0.0 0.00 0.00 0.00 34 1007.0
20260905204541 101 165 0.0 0.0 0.00 0.00 0.00 35 1007.2
20260905203039 100 129 0.0 0.0 0.00 0.00 0.00 35 1007.5
20260905201538 100 138 0.0 1.0 0.00 0.00 0.00 35 1007.6
20260905200045 100 259 0.0 0.0 0.00 0.00 0.00 36 1007.9
20260905194534 100 249 0.0 0.0 0.00 0.00 0.00 36 1008.1
20260905193029 100 119 0.0 0.0 0.00 0.00 0.00 37 1008.3
20260905191535 99 159 0.0 0.0 0.00 0.00 0.00 37 1008.6
20260905190043 99 175 0.0 0.0 0.00 0.00 0.00 37 1008.8
20260905184526 99 319 0.0 0.0 0.00 0.00 0.00 39 1009.1